#�ϑ�����,���ϕ���,���ϕ���,�ő啗��,�ő啗����������,�ő�u�ԕ���,�ő�u�ԕ�����������
#(�N����),(m/s)   ,(16����),(m/s)   ,(16����)        ,(m/s)       ,(16����)            
2013/1/3 0:01,0.9,15,0.9,15,3,11
2013/1/3 0:02,0.9,14,0.9,15,2.9,10
2013/1/3 0:03,1.2,13,1.2,13,5.8,13
2013/1/3 0:04,1.4,13,1.4,13,5.5,13
2013/1/3 0:05,1.7,13,1.7,13,3.8,12
2013/1/3 0:06,1.8,13,1.8,13,2.9,14
2013/1/3 0:07,2,12,2,12,4.1,10
2013/1/3 0:08,2.1,12,2.1,12,4.9,9
2013/1/3 0:09,2,12,2.1,12,1.4,6
2013/1/3 0:10,2,12,2,12,1.9,10
2013/1/3 0:11,2,11,2,12,3,9
2013/1/3 0:12,1.9,11,2,12,3.2,9
2013/1/3 0:13,1.8,11,2,12,3.5,13
2013/1/3 0:14,1.6,11,1.8,12,2.5,11
2013/1/3 0:15,1.5,11,1.6,12,1.6,16
2013/1/3 0:16,1.4,11,1.4,12,2.7,2
2013/1/3 0:17,1.3,12,1.4,12,1.6,16
2013/1/3 0:18,1.2,12,1.2,12,1.3,11
2013/1/3 0:19,1.2,12,1.2,12,2.1,9
2013/1/3 0:20,1.3,12,1.3,11,3.3,10
2013/1/3 0:21,1.2,12,1.2,11,2.2,8
2013/1/3 0:22,1.2,12,1.2,11,4.5,9
2013/1/3 0:23,1.3,11,1.3,11,6.7,9
2013/1/3 0:24,1.5,11,1.5,11,5.8,10
2013/1/3 0:25,1.9,11,1.9,11,6.9,10
2013/1/3 0:26,2,11,2,11,4.9,11
2013/1/3 0:27,2,10,2,11,2.5,8
2013/1/3 0:28,2.3,10,2.3,10,6.1,12
2013/1/3 0:29,2.5,10,2.5,10,6,11
2013/1/3 0:30,2.6,10,2.6,10,6.5,9
2013/1/3 0:31,2.8,10,2.8,10,5.4,11
2013/1/3 0:32,2.9,11,2.9,11,6.3,9
2013/1/3 0:33,2.8,11,3,11,3.8,9
2013/1/3 0:34,2.7,11,2.8,11,3.1,10
2013/1/3 0:35,2.4,11,2.7,11,2.2,12
2013/1/3 0:36,2.4,11,2.4,11,3.2,9
2013/1/3 0:37,2.6,11,2.6,11,5.6,12
2013/1/3 0:38,2.6,11,2.6,11,5.2,12
2013/1/3 0:39,2.5,11,2.6,11,4.2,10
2013/1/3 0:40,2.6,12,2.7,11,8.9,16
2013/1/3 0:41,2.6,12,2.7,11,4.9,16
2013/1/3 0:42,2.6,12,2.6,11,6.3,11
2013/1/3 0:43,2.6,12,2.6,11,3.8,9
2013/1/3 0:44,2.9,12,2.9,12,8.3,11
2013/1/3 0:45,3.2,12,3.2,12,6.3,12
2013/1/3 0:46,3.2,12,3.2,12,3.9,14
2013/1/3 0:47,3.1,12,3.2,12,5.2,12
2013/1/3 0:48,3,12,3.1,12,7.2,10
2013/1/3 0:49,2.9,12,3,12,3.7,10
2013/1/3 0:50,2.7,12,2.9,12,3.2,10
2013/1/3 0:51,2.8,11,2.8,12,4.5,10
2013/1/3 0:52,2.9,11,2.9,12,5.7,10
2013/1/3 0:53,2.9,11,2.9,12,3.9,11
2013/1/3 0:54,2.7,11,2.9,12,4.4,11
2013/1/3 0:55,2.4,11,2.7,12,3.3,9
2013/1/3 0:56,2.4,11,2.4,12,1.9,12
2013/1/3 0:57,2.4,11,2.4,12,5,11
2013/1/3 0:58,2.4,11,2.4,12,4.8,11
2013/1/3 0:59,2.5,11,2.5,12,5.1,12
2013/1/3 1:00,2.6,11,2.6,11,5.4,10
2013/1/3 1:01,2.6,11,2.6,11,6.1,10
2013/1/3 1:02,2.5,11,2.6,11,4.3,10
2013/1/3 1:03,2.4,11,2.5,11,3.2,10
2013/1/3 1:04,2.2,11,2.4,11,2.6,9
2013/1/3 1:05,2.1,11,2.2,11,1.1,10
2013/1/3 1:06,2.3,11,2.3,11,6.2,10
2013/1/3 1:07,2.6,10,2.6,11,7,9
2013/1/3 1:08,2.5,10,2.6,11,6.8,9
2013/1/3 1:09,2.6,10,2.6,11,6.9,10
2013/1/3 1:10,2.7,10,2.7,10,6.3,10
2013/1/3 1:11,2.6,10,2.7,10,6.8,9
2013/1/3 1:12,2.6,10,2.6,10,4.3,9
2013/1/3 1:13,2.6,9,2.6,10,3.8,9
2013/1/3 1:14,2.8,10,2.8,9,5.4,10
2013/1/3 1:15,3,10,3,10,3.7,9
2013/1/3 1:16,2.8,10,3,10,3,8
2013/1/3 1:17,2.6,9,2.8,10,3.5,9
2013/1/3 1:18,2.5,9,2.6,10,4.4,10
2013/1/3 1:19,2.5,9,2.6,10,5,10
2013/1/3 1:20,2.4,9,2.5,10,4.5,10
2013/1/3 1:21,2.4,9,2.4,10,4.3,9
2013/1/3 1:22,2.4,9,2.4,10,3.5,9
2013/1/3 1:23,2.4,9,2.4,10,3.5,7
2013/1/3 1:24,2.4,9,2.4,10,3.7,9
2013/1/3 1:25,2.2,9,2.3,10,2.5,9
2013/1/3 1:26,2.3,9,2.3,10,3.9,9
2013/1/3 1:27,2.4,9,2.4,9,4.2,10
2013/1/3 1:28,2.3,9,2.4,9,3.3,10
2013/1/3 1:29,2.1,9,2.3,9,2,10
2013/1/3 1:30,2.1,9,2.1,9,3.8,9
2013/1/3 1:31,2.1,9,2.1,9,4.5,10
2013/1/3 1:32,2,9,2.1,9,2.6,9
2013/1/3 1:33,1.9,9,1.9,9,2.6,9
2013/1/3 1:34,1.9,9,1.9,9,4.8,10
2013/1/3 1:35,2,10,2,9,4.8,10
2013/1/3 1:36,2.1,10,2.1,9,4.4,10
2013/1/3 1:37,2.2,10,2.2,9,3.8,10
2013/1/3 1:38,2.2,10,2.2,9,3.2,10
2013/1/3 1:39,2.4,10,2.4,10,3.9,10
2013/1/3 1:40,2.3,10,2.4,10,3.3,10
2013/1/3 1:41,2.2,10,2.3,10,3.3,12
2013/1/3 1:42,2.2,10,2.3,10,2,10
2013/1/3 1:43,2.2,10,2.3,10,1.4,11
2013/1/3 1:44,2,11,2.2,10,0.8,15
2013/1/3 1:45,1.7,11,1.9,10,0.9,13
2013/1/3 1:46,1.5,11,1.7,10,1.3,12
2013/1/3 1:47,1.3,11,1.4,10,1.6,11
2013/1/3 1:48,1.1,11,1.3,10,1.6,10
2013/1/3 1:49,1,11,1.1,10,1.4,11
2013/1/3 1:50,0.9,11,0.9,10,1.3,9
2013/1/3 1:51,0.8,11,0.9,10,1.9,10
2013/1/3 1:52,0.7,11,0.8,10,1,9
2013/1/3 1:53,0.7,11,0.7,10,1.6,10
2013/1/3 1:54,0.8,11,0.8,11,1.1,11
2013/1/3 1:55,0.8,11,0.8,11,1.4,12
2013/1/3 1:56,0.9,11,0.9,11,1.9,10
2013/1/3 1:57,0.9,11,0.9,11,1.5,9
2013/1/3 1:58,0.9,11,0.9,11,2,13
2013/1/3 1:59,0.9,11,0.9,11,2,12
2013/1/3 2:00,1,11,1,11,3,10
2013/1/3 2:01,1,11,1,11,2.2,11
2013/1/3 2:02,1.1,11,1.1,11,2.7,9
2013/1/3 2:03,1.1,11,1.1,11,1.4,9
2013/1/3 2:04,1.2,10,1.2,11,2.1,9
2013/1/3 2:05,1.2,10,1.2,11,2.1,9
2013/1/3 2:06,1.2,10,1.2,11,2.4,9
2013/1/3 2:07,1.3,10,1.3,10,2.5,9
2013/1/3 2:08,1.3,10,1.3,10,1.9,9
2013/1/3 2:09,1.3,10,1.3,10,2.6,11
2013/1/3 2:10,1.3,10,1.4,10,2.5,11
2013/1/3 2:11,1.3,10,1.3,10,1.6,10
2013/1/3 2:12,1.3,10,1.3,10,2,8
2013/1/3 2:13,1.4,10,1.4,10,2,13
2013/1/3 2:14,1.3,10,1.4,10,1.9,9
2013/1/3 2:15,1.3,10,1.3,10,1.9,10
2013/1/3 2:16,1.2,11,1.3,10,1,12
2013/1/3 2:17,1.1,11,1.2,10,1.4,10
2013/1/3 2:18,1.1,11,1.1,10,1.5,14
2013/1/3 2:19,1.1,11,1.1,10,3,12
2013/1/3 2:20,1,11,1.1,10,2.2,12
2013/1/3 2:21,1,11,1,10,1.1,10
2013/1/3 2:22,0.9,11,1,10,2,12
2013/1/3 2:23,0.9,11,0.9,10,1,12
2013/1/3 2:24,0.8,11,0.8,10,1.8,9
2013/1/3 2:25,0.9,11,0.9,10,3,11
2013/1/3 2:26,1,11,1,11,2.7,10
2013/1/3 2:27,1.1,12,1.1,11,2.5,12
2013/1/3 2:28,1.1,11,1.1,11,1.4,9
2013/1/3 2:29,1.1,11,1.1,11,2.5,11
2013/1/3 2:30,1,11,1.1,11,1.8,10
2013/1/3 2:31,1.2,11,1.2,11,3,10
2013/1/3 2:32,1.3,11,1.3,11,2.7,10
2013/1/3 2:33,1.3,11,1.3,11,1.8,10
2013/1/3 2:34,1.4,11,1.4,11,1.6,11
2013/1/3 2:35,1.3,11,1.4,11,2.1,13
2013/1/3 2:36,1.2,11,1.3,11,1.6,9
2013/1/3 2:37,1.2,11,1.2,11,1.5,11
2013/1/3 2:38,1.2,11,1.2,11,2.2,12
2013/1/3 2:39,1.3,11,1.3,11,2.7,13
2013/1/3 2:40,1.3,11,1.3,11,2.4,11
2013/1/3 2:41,1.2,11,1.3,11,1.8,9
2013/1/3 2:42,1.2,11,1.2,11,3,10
2013/1/3 2:43,1.2,11,1.2,11,2.6,10
2013/1/3 2:44,1.3,11,1.3,11,3.2,11
2013/1/3 2:45,1.2,11,1.3,11,1.5,12
2013/1/3 2:46,1.3,12,1.3,11,2.1,12
2013/1/3 2:47,1.3,12,1.3,11,2.7,10
2013/1/3 2:48,1.3,11,1.3,11,2,10
2013/1/3 2:49,1.2,11,1.2,11,1.9,9
2013/1/3 2:50,1.2,11,1.2,11,2.5,9
2013/1/3 2:51,1.2,11,1.2,11,2,10
2013/1/3 2:52,1.2,11,1.2,11,2.7,12
2013/1/3 2:53,1.2,11,1.2,11,1.8,10
2013/1/3 2:54,1.1,11,1.1,11,1.3,13
2013/1/3 2:55,1.1,11,1.1,11,2.2,8
2013/1/3 2:56,1.1,11,1.1,12,1.3,10
2013/1/3 2:57,1.1,11,1.1,12,1.6,13
2013/1/3 2:58,1,11,1.1,11,1.5,11
2013/1/3 2:59,1.1,11,1.1,11,2.4,10
2013/1/3 3:00,1.1,11,1.1,11,2.1,10
2013/1/3 3:01,1.2,11,1.2,11,3,10
2013/1/3 3:02,1.2,11,1.2,11,2.9,10
2013/1/3 3:03,1.2,11,1.2,11,2.6,10
2013/1/3 3:04,1.3,11,1.3,11,2.4,10
2013/1/3 3:05,1.4,11,1.4,11,2.6,11
2013/1/3 3:06,1.5,11,1.5,11,3.2,9
2013/1/3 3:07,1.5,10,1.5,11,2.6,10
2013/1/3 3:08,1.6,10,1.6,10,2.9,9
2013/1/3 3:09,1.7,10,1.7,10,3.3,10
2013/1/3 3:10,1.8,10,1.8,10,3.6,11
2013/1/3 3:11,1.7,10,1.8,10,2.9,9
2013/1/3 3:12,1.8,10,1.8,10,3.5,10
2013/1/3 3:13,1.9,10,1.9,10,3.7,10
2013/1/3 3:14,2,10,2,10,3.5,10
2013/1/3 3:15,2,10,2,10,3.6,9
2013/1/3 3:16,2,10,2,10,4.1,10
2013/1/3 3:17,2.1,10,2.1,10,3.1,10
2013/1/3 3:18,2.2,10,2.2,10,3.1,9
2013/1/3 3:19,2.2,10,2.2,10,3.3,11
2013/1/3 3:20,2.2,10,2.2,10,3.2,10
2013/1/3 3:21,2.2,10,2.2,10,3.2,9
2013/1/3 3:22,2.1,10,2.2,10,2.6,9
2013/1/3 3:23,2.1,10,2.1,10,2.9,9
2013/1/3 3:24,2,10,2,10,2.1,11
2013/1/3 3:25,1.9,10,2,10,2.6,10
2013/1/3 3:26,1.8,10,1.9,10,1.8,9
2013/1/3 3:27,1.6,10,1.8,10,1.8,9
2013/1/3 3:28,1.5,10,1.6,10,2.9,10
2013/1/3 3:29,1.5,10,1.5,10,2.5,9
2013/1/3 3:30,1.4,10,1.5,10,2,10
2013/1/3 3:31,1.4,10,1.4,10,2.5,10
2013/1/3 3:32,1.4,10,1.4,10,2.4,11
2013/1/3 3:33,1.3,10,1.4,10,1.8,8
2013/1/3 3:34,1.4,10,1.4,10,3,10
2013/1/3 3:35,1.5,10,1.5,10,3.2,9
2013/1/3 3:36,1.5,10,1.5,10,2.5,9
2013/1/3 3:37,1.6,10,1.6,10,2,10
2013/1/3 3:38,1.6,10,1.6,10,2.5,10
2013/1/3 3:39,1.6,10,1.6,10,2.7,10
2013/1/3 3:40,1.6,10,1.6,10,2.6,11
2013/1/3 3:41,1.6,10,1.7,10,2.7,10
2013/1/3 3:42,1.6,10,1.6,10,2.5,10
2013/1/3 3:43,1.7,10,1.7,10,2.1,9
2013/1/3 3:44,1.6,10,1.7,10,2.1,10
2013/1/3 3:45,1.5,10,1.6,10,1.5,9
2013/1/3 3:46,1.4,10,1.4,10,1.4,10
2013/1/3 3:47,1.3,10,1.4,10,1.4,11
2013/1/3 3:48,1.3,10,1.3,10,1.5,12
2013/1/3 3:49,1.1,10,1.3,10,1,10
2013/1/3 3:50,1,10,1.1,10,0.5,8
2013/1/3 3:51,0.8,10,1,10,0,9
2013/1/3 3:52,0.6,10,0.8,10,0.1,11
2013/1/3 3:53,0.6,10,0.6,10,0.9,10
2013/1/3 3:54,0.6,10,0.6,10,1.6,11
2013/1/3 3:55,0.6,10,0.6,10,1.8,9
2013/1/3 3:56,0.7,11,0.7,10,1.4,10
2013/1/3 3:57,0.7,11,0.7,10,1.3,11
2013/1/3 3:58,0.6,11,0.7,10,1.1,13
2013/1/3 3:59,0.6,11,0.6,10,0.9,14
2013/1/3 4:00,0.7,12,0.7,10,0.8,14
2013/1/3 4:01,0.7,12,0.7,10,1,12
2013/1/3 4:02,0.8,12,0.8,12,1.1,9
2013/1/3 4:03,0.9,11,0.9,11,1.6,9
2013/1/3 4:04,0.8,11,0.9,11,1,7
2013/1/3 4:05,0.7,11,0.8,11,1.1,12
2013/1/3 4:06,0.7,11,0.7,11,1.6,14
2013/1/3 4:07,0.6,12,0.7,11,1,12
2013/1/3 4:08,0.6,12,0.6,11,1.5,11
2013/1/3 4:09,0.6,11,0.6,11,1,12
2013/1/3 4:10,0.7,11,0.7,11,1.5,12
2013/1/3 4:11,0.7,11,0.7,11,1,11
2013/1/3 4:12,0.7,11,0.7,11,1.3,12
2013/1/3 4:13,0.5,12,0.6,11,0.3,1
2013/1/3 4:14,0.5,12,0.5,11,1.3,9
2013/1/3 4:15,0.5,12,0.6,11,0.9,10
2013/1/3 4:16,0.6,11,0.6,11,1.8,11
2013/1/3 4:17,0.6,11,0.6,11,1.6,9
2013/1/3 4:18,0.5,11,0.6,11,0.6,9
2013/1/3 4:19,0.6,11,0.6,11,2.7,13
2013/1/3 4:20,0.8,11,0.8,11,3,12
2013/1/3 4:21,0.8,11,0.9,11,2.5,13
2013/1/3 4:22,0.9,11,0.9,11,2.5,8
2013/1/3 4:23,0.9,10,0.9,11,1.3,11
2013/1/3 4:24,1,10,1,10,1.3,10
2013/1/3 4:25,1,11,1,10,1.3,10
2013/1/3 4:26,1,11,1,10,3.3,15
2013/1/3 4:27,1.1,11,1.1,11,3.1,13
2013/1/3 4:28,1.2,12,1.2,12,1.9,13
2013/1/3 4:29,1.1,12,1.2,12,1.3,10
2013/1/3 4:30,1,11,1.1,12,1.6,7
2013/1/3 4:31,0.9,11,0.9,12,1,7
2013/1/3 4:32,1,11,1,12,3.5,10
2013/1/3 4:33,1.1,11,1.1,12,2.7,9
2013/1/3 4:34,1.1,12,1.1,12,1.6,12
2013/1/3 4:35,1.1,12,1.1,12,0.9,13
2013/1/3 4:36,1,11,1.1,12,1.1,13
2013/1/3 4:37,1,11,1,12,2.1,12
2013/1/3 4:38,1,11,1,12,1.4,13
2013/1/3 4:39,1.1,11,1.1,12,2.2,13
2013/1/3 4:40,1.1,12,1.2,12,2.9,12
2013/1/3 4:41,1.2,12,1.2,12,3.2,13
2013/1/3 4:42,1.2,12,1.3,12,2.5,13
2013/1/3 4:43,1.1,12,1.2,12,1.5,13
2013/1/3 4:44,1.1,12,1.1,12,1.4,11
2013/1/3 4:45,1,13,1.1,12,0.3,9
2013/1/3 4:46,1,13,1.1,12,1.1,13
2013/1/3 4:47,1.1,13,1.1,12,2.4,12
2013/1/3 4:48,1.2,13,1.2,12,3.3,12
2013/1/3 4:49,1.3,13,1.3,12,3.9,12
2013/1/3 4:50,1.4,13,1.4,13,2.7,12
2013/1/3 4:51,1.4,12,1.4,13,3,11
2013/1/3 4:52,1.4,12,1.4,13,2.5,12
2013/1/3 4:53,1.5,12,1.5,12,3.7,9
2013/1/3 4:54,1.6,12,1.6,12,2.2,7
2013/1/3 4:55,1.9,11,1.9,11,6.2,10
2013/1/3 4:56,2.2,11,2.2,11,6.1,10
2013/1/3 4:57,2.5,11,2.5,11,8.9,10
2013/1/3 4:58,2.5,11,2.5,11,7,9
2013/1/3 4:59,2.8,11,2.8,11,8.9,13
2013/1/3 5:00,2.9,11,2.9,11,6.7,12
2013/1/3 5:01,3,11,3,11,4.4,12
2013/1/3 5:02,3.3,11,3.3,11,10.1,15
2013/1/3 5:03,3.3,12,3.3,11,4.3,11
2013/1/3 5:04,3.4,12,3.4,12,4.4,11
2013/1/3 5:05,3.3,12,3.5,12,4.4,8
2013/1/3 5:06,3.3,12,3.4,12,6.5,12
2013/1/3 5:07,3.5,13,3.5,12,9.1,13
2013/1/3 5:08,3.6,13,3.6,13,6.4,13
2013/1/3 5:09,3.5,13,3.6,13,6.3,11
2013/1/3 5:10,3.6,13,3.6,13,7.2,12
2013/1/3 5:11,3.8,12,3.8,12,7,11
2013/1/3 5:12,3.9,12,3.9,12,7.9,11
2013/1/3 5:13,4,12,4,12,6.3,14
2013/1/3 5:14,3.9,12,4,12,4.2,13
2013/1/3 5:15,4,12,4,12,3.3,10
2013/1/3 5:16,3.8,12,4,12,4.3,9
2013/1/3 5:17,3.6,12,3.8,12,7.7,13
2013/1/3 5:18,3.6,12,3.6,12,6.7,16
2013/1/3 5:19,3.4,12,3.6,12,7.5,15
2013/1/3 5:20,3.2,12,3.4,12,4.1,10
2013/1/3 5:21,2.9,12,3.1,12,3.1,10
2013/1/3 5:22,2.4,12,2.8,12,3.2,12
2013/1/3 5:23,2.4,12,2.5,12,4.4,12
2013/1/3 5:24,2.6,12,2.6,12,6.9,12
2013/1/3 5:25,2.8,12,2.8,12,6,14
2013/1/3 5:26,3.1,13,3.1,12,7.5,12
2013/1/3 5:27,3.2,13,3.2,12,7.5,13
2013/1/3 5:28,3,12,3.2,12,4.2,14
2013/1/3 5:29,3.1,13,3.1,12,3.8,14
2013/1/3 5:30,3.1,13,3.1,13,5.8,10
2013/1/3 5:31,3.3,13,3.3,13,5.5,13
2013/1/3 5:32,3.4,13,3.4,13,4.1,13
2013/1/3 5:33,3.3,13,3.4,13,4.9,11
2013/1/3 5:34,3.3,13,3.4,13,4.9,12
2013/1/3 5:35,3.2,13,3.3,13,4.5,12
2013/1/3 5:36,2.7,13,3.1,13,2.5,15
2013/1/3 5:37,2.6,13,2.7,13,5,13
2013/1/3 5:38,2.6,12,2.6,13,4.4,13
2013/1/3 5:39,2.7,12,2.7,13,4.7,12
2013/1/3 5:40,2.7,12,2.8,13,3.9,13
2013/1/3 5:41,2.7,12,2.7,13,4.4,11
2013/1/3 5:42,2.7,12,2.7,13,5.5,13
2013/1/3 5:43,2.6,12,2.7,13,3.5,12
2013/1/3 5:44,2.6,12,2.6,13,5.8,12
2013/1/3 5:45,2.6,12,2.6,13,4.2,14
2013/1/3 5:46,2.8,12,2.8,12,4.4,12
2013/1/3 5:47,3,12,3,12,7.4,15
2013/1/3 5:48,3,13,3.1,13,7.5,16
2013/1/3 5:49,3,13,3.1,13,6,16
2013/1/3 5:50,2.8,13,3,13,2.2,12
2013/1/3 5:51,2.7,13,2.8,13,1.8,12
2013/1/3 5:52,2.5,13,2.7,13,2.1,13
2013/1/3 5:53,2.6,13,2.6,13,3.6,13
2013/1/3 5:54,2.5,13,2.6,13,4.9,16
2013/1/3 5:55,2.5,13,2.5,13,3.2,14
2013/1/3 5:56,2.4,13,2.5,13,2.6,13
2013/1/3 5:57,2,13,2.3,13,3.1,11
2013/1/3 5:58,1.8,13,2,13,3,11
2013/1/3 5:59,1.5,13,1.8,13,1,8
2013/1/3 6:00,1.6,13,1.6,13,2.2,13
2013/1/3 6:01,1.7,13,1.7,13,3.9,10
2013/1/3 6:02,1.8,12,1.8,13,3.1,12
2013/1/3 6:03,1.8,12,1.8,13,3.9,9
2013/1/3 6:04,1.8,12,1.8,13,5.5,9
2013/1/3 6:05,1.9,11,1.9,13,5.5,12
2013/1/3 6:06,1.9,11,1.9,13,3.9,12
2013/1/3 6:07,1.9,11,1.9,13,2.4,9
2013/1/3 6:08,2,11,2,11,3.1,10
2013/1/3 6:09,2.2,11,2.2,11,3.8,12
2013/1/3 6:10,2.3,11,2.3,11,4.3,12
2013/1/3 6:11,2.2,11,2.3,11,3,15
2013/1/3 6:12,2.1,11,2.2,11,2.4,12
2013/1/3 6:13,2.1,12,2.1,11,3.1,14
2013/1/3 6:14,1.9,12,2.1,11,3.1,14
2013/1/3 6:15,1.8,12,1.9,11,2.2,16
2013/1/3 6:16,1.6,12,1.7,11,3,12
2013/1/3 6:17,1.7,13,1.7,11,3.1,11
2013/1/3 6:18,1.8,13,1.8,11,5.7,12
2013/1/3 6:19,1.8,13,1.9,11,5,12
2013/1/3 6:20,1.6,13,1.8,11,1,13
2013/1/3 6:21,1.6,13,1.6,11,3.1,9
2013/1/3 6:22,1.6,13,1.6,11,2.7,13
2013/1/3 6:23,1.7,13,1.7,12,4.8,15
2013/1/3 6:24,2,13,2,13,7.7,13
2013/1/3 6:25,2.2,12,2.2,12,4.8,12
2013/1/3 6:26,2.2,13,2.2,12,3.3,15
2013/1/3 6:27,2.2,13,2.2,12,3.8,14
2013/1/3 6:28,2,13,2.2,12,4.4,11
2013/1/3 6:29,2,13,2,12,3.2,14
2013/1/3 6:30,2,13,2,12,1.3,12
2013/1/3 6:31,2.1,13,2.1,12,3.6,11
2013/1/3 6:32,2.2,13,2.2,12,3.3,12
2013/1/3 6:33,2,13,2.2,12,2.7,12
2013/1/3 6:34,1.7,13,2,12,3.5,14
2013/1/3 6:35,1.8,13,1.8,12,5.2,15
2013/1/3 6:36,2.1,13,2.1,13,6,16
2013/1/3 6:37,2.1,13,2.1,12,3.5,14
2013/1/3 6:38,2.3,13,2.3,13,3.6,12
2013/1/3 6:39,2.3,13,2.3,13,3.3,12
2013/1/3 6:40,2.5,13,2.5,13,5.2,13
2013/1/3 6:41,2.6,13,2.6,13,5.5,10
2013/1/3 6:42,2.6,13,2.6,13,5.2,10
2013/1/3 6:43,2.7,13,2.7,13,4.7,13
2013/1/3 6:44,3,13,3,13,6.9,13
2013/1/3 6:45,3,13,3.1,13,5.7,14
2013/1/3 6:46,2.8,13,3,13,3.1,14
2013/1/3 6:47,2.8,12,2.8,13,5.1,13
2013/1/3 6:48,2.8,13,2.8,13,5.1,14
2013/1/3 6:49,2.8,13,2.8,13,4.2,13
2013/1/3 6:50,2.8,13,2.8,13,3.9,14
2013/1/3 6:51,2.8,13,2.9,13,5.1,15
2013/1/3 6:52,2.7,13,2.8,13,4.1,14
2013/1/3 6:53,2.6,13,2.7,13,3.1,15
2013/1/3 6:54,2.2,13,2.6,13,1.8,12
2013/1/3 6:55,2,13,2.2,13,2,13
2013/1/3 6:56,2,13,2,13,2.6,15
2013/1/3 6:57,2,13,2,13,3.3,12
2013/1/3 6:58,1.9,13,2,13,4.4,15
2013/1/3 6:59,2,14,2,13,5.1,15
2013/1/3 7:00,1.9,14,2,13,3.3,14
2013/1/3 7:01,1.8,14,1.9,13,3.2,14
2013/1/3 7:02,1.7,14,1.8,13,2.4,12
2013/1/3 7:03,1.6,13,1.7,13,2.5,12
2013/1/3 7:04,1.7,13,1.7,13,2.7,10
2013/1/3 7:05,1.6,13,1.7,13,2,11
2013/1/3 7:06,1.4,13,1.6,13,0.8,15
2013/1/3 7:07,1.3,14,1.4,13,0.6,12
2013/1/3 7:08,1.2,13,1.3,13,1.9,14
2013/1/3 7:09,1,13,1.2,14,2.7,14
2013/1/3 7:10,1,13,1.1,14,2.7,12
2013/1/3 7:11,1.1,13,1.1,14,4.2,13
2013/1/3 7:12,1.2,13,1.2,14,3.7,12
2013/1/3 7:13,1.2,13,1.3,13,2.9,16
2013/1/3 7:14,1.2,13,1.2,13,2.2,15
2013/1/3 7:15,1.3,14,1.3,13,3.1,14
2013/1/3 7:16,1.4,13,1.4,13,1.8,12
2013/1/3 7:17,1.5,13,1.5,13,2.1,15
2013/1/3 7:18,1.5,14,1.6,13,2.4,14
2013/1/3 7:19,1.4,14,1.5,13,3.2,14
2013/1/3 7:20,1.4,14,1.5,13,2.6,15
2013/1/3 7:21,1.4,14,1.4,13,3.5,12
2013/1/3 7:22,1.3,14,1.4,13,2.4,11
2013/1/3 7:23,1.3,14,1.3,13,2.9,9
2013/1/3 7:24,1.5,13,1.5,13,3.8,12
2013/1/3 7:25,1.7,13,1.7,13,4.4,13
2013/1/3 7:26,1.8,13,1.8,13,3.9,11
2013/1/3 7:27,2,13,2,13,5.6,13
2013/1/3 7:28,2.3,12,2.3,12,4.7,13
2013/1/3 7:29,2.4,12,2.4,12,4.3,14
2013/1/3 7:30,2.5,12,2.5,12,5.1,15
2013/1/3 7:31,2.5,12,2.6,12,3.1,14
2013/1/3 7:32,2.5,13,2.5,12,2,11
2013/1/3 7:33,2.6,13,2.6,12,3.5,13
2013/1/3 7:34,2.6,13,2.6,12,4.8,13
2013/1/3 7:35,2.5,13,2.6,12,3,12
2013/1/3 7:36,2.5,12,2.5,12,3.9,12
2013/1/3 7:37,2.6,12,2.6,12,7,13
2013/1/3 7:38,2.5,12,2.6,12,7,13
2013/1/3 7:39,2.3,12,2.5,12,3.9,8
2013/1/3 7:40,2.1,12,2.3,12,0.9,12
2013/1/3 7:41,2.1,12,2.1,13,2.5,12
2013/1/3 7:42,2.2,12,2.2,13,3.5,9
2013/1/3 7:43,2.2,12,2.2,13,3.9,9
2013/1/3 7:44,2.1,12,2.2,13,2.1,9
2013/1/3 7:45,2,11,2.1,12,4.4,9
2013/1/3 7:46,1.8,11,2,12,3,13
2013/1/3 7:47,1.7,11,1.8,12,4.9,10
2013/1/3 7:48,1.7,11,1.7,12,4.9,9
2013/1/3 7:49,1.7,11,1.7,12,3.1,9
2013/1/3 7:50,2.1,11,2.1,12,5.4,10
2013/1/3 7:51,2.1,11,2.1,12,3.8,11
2013/1/3 7:52,2.2,11,2.2,12,4.1,9
2013/1/3 7:53,2.1,10,2.2,12,3.7,9
2013/1/3 7:54,2.1,10,2.1,11,3.1,8
2013/1/3 7:55,2.1,11,2.1,11,1.9,9
2013/1/3 7:56,2.1,10,2.1,11,4.7,10
2013/1/3 7:57,2.1,10,2.1,11,4.1,8
2013/1/3 7:58,2,11,2.1,11,4.1,13
2013/1/3 7:59,2,11,2,11,2.1,14
2013/1/3 8:00,1.7,11,2,11,2.4,8
2013/1/3 8:01,1.6,10,1.7,11,3.8,9
2013/1/3 8:02,1.6,10,1.7,11,4.7,9
2013/1/3 8:03,1.6,11,1.7,10,3.6,10
2013/1/3 8:04,1.6,10,1.6,11,3.8,9
2013/1/3 8:05,1.8,10,1.8,11,3.9,9
2013/1/3 8:06,1.9,10,1.9,10,3.6,9
2013/1/3 8:07,1.9,10,1.9,10,3.9,9
2013/1/3 8:08,1.8,10,1.9,11,2.4,9
2013/1/3 8:09,1.9,9,1.9,11,3.7,8
2013/1/3 8:10,2.1,9,2.1,9,3.8,9
2013/1/3 8:11,2.2,10,2.2,10,4.2,9
2013/1/3 8:12,2.2,9,2.2,10,4.4,9
2013/1/3 8:13,2.3,9,2.3,9,3.6,9
2013/1/3 8:14,2.3,9,2.3,9,4.2,9
2013/1/3 8:15,2.3,9,2.3,9,4.8,9
2013/1/3 8:16,2.4,9,2.4,9,4.7,9
2013/1/3 8:17,2.3,9,2.4,9,4.5,9
2013/1/3 8:18,2.5,9,2.5,9,5.2,9
2013/1/3 8:19,2.5,9,2.5,9,4.1,9
2013/1/3 8:20,2.4,9,2.5,9,4.5,10
2013/1/3 8:21,2.4,9,2.5,9,4.3,8
2013/1/3 8:22,2.4,9,2.4,9,4.3,9
2013/1/3 8:23,2.5,9,2.5,9,4.8,8
2013/1/3 8:24,2.5,9,2.5,9,4.7,9
2013/1/3 8:25,2.4,9,2.5,9,3.3,8
2013/1/3 8:26,2.4,9,2.5,9,3.8,7
2013/1/3 8:27,2.4,9,2.4,9,3.9,9
2013/1/3 8:28,2.2,9,2.3,9,2.9,8
2013/1/3 8:29,2.1,9,2.2,9,2.9,8
2013/1/3 8:30,2,9,2.1,9,2,9
2013/1/3 8:31,2,9,2.1,9,2.5,8
2013/1/3 8:32,1.9,8,1.9,9,2,8
2013/1/3 8:33,1.7,8,1.9,9,2,8
2013/1/3 8:34,1.5,8,1.7,9,1.9,9
2013/1/3 8:35,1.5,8,1.5,9,2.1,8
2013/1/3 8:36,1.4,8,1.5,9,2.1,8
2013/1/3 8:37,1.4,8,1.4,9,2.1,7
2013/1/3 8:38,1.3,8,1.4,9,1,7
2013/1/3 8:39,1.2,8,1.3,9,2.2,6
2013/1/3 8:40,1.2,8,1.2,9,2.5,6
2013/1/3 8:41,1.1,8,1.2,9,1,15
2013/1/3 8:42,1,8,1,8,1.8,10
2013/1/3 8:43,1,8,1,8,2.2,9
2013/1/3 8:44,1,9,1,8,2.2,9
2013/1/3 8:45,1,9,1,8,3.2,10
2013/1/3 8:46,1.1,9,1.1,8,3.8,10
2013/1/3 8:47,1.1,10,1.2,8,3,10
2013/1/3 8:48,1.2,10,1.2,8,2.4,8
2013/1/3 8:49,1.3,10,1.3,10,3.1,8
2013/1/3 8:50,1.4,10,1.4,10,3.1,10
2013/1/3 8:51,1.6,10,1.6,10,5.4,10
2013/1/3 8:52,2,10,2,10,8.1,10
2013/1/3 8:53,2.3,10,2.3,10,6.5,9
2013/1/3 8:54,2.5,10,2.5,10,6.3,9
2013/1/3 8:55,2.7,10,2.7,10,6.1,8
2013/1/3 8:56,2.8,10,2.8,10,5.6,10
2013/1/3 8:57,2.9,10,2.9,10,5.2,9
2013/1/3 8:58,3.1,10,3.1,10,4.8,9
2013/1/3 8:59,3.1,10,3.1,10,4.4,10
2013/1/3 9:00,3.2,10,3.2,10,5.6,10
2013/1/3 9:01,3.4,10,3.4,10,6.7,9
2013/1/3 9:02,3.1,10,3.4,10,5.1,9
2013/1/3 9:03,3,10,3.1,10,5.2,10
2013/1/3 9:04,3,10,3.1,10,4.7,11
2013/1/3 9:05,3,10,3,10,7,11
2013/1/3 9:06,3,10,3,10,5.6,10
2013/1/3 9:07,2.9,10,3,10,3.5,10
2013/1/3 9:08,3,10,3,10,6,9
2013/1/3 9:09,3.1,10,3.1,10,7.2,9
2013/1/3 9:10,3.2,10,3.2,10,5.8,10
2013/1/3 9:11,3.1,10,3.2,10,6.3,10
2013/1/3 9:12,3.3,10,3.3,10,7.2,9
2013/1/3 9:13,3.3,10,3.3,10,5.8,9
2013/1/3 9:14,3.2,10,3.3,10,4.7,10
2013/1/3 9:15,3,10,3.2,10,4.3,9
2013/1/3 9:16,2.9,10,3,10,3.5,9
2013/1/3 9:17,2.9,10,2.9,10,5.5,11
2013/1/3 9:18,2.9,10,2.9,10,5.4,11
2013/1/3 9:19,2.9,10,2.9,10,4.8,11
2013/1/3 9:20,2.8,10,2.9,10,4.9,10
2013/1/3 9:21,3,10,3,10,6.8,10
2013/1/3 9:22,2.8,10,3,10,5.5,11
2013/1/3 9:23,2.9,10,2.9,10,6.3,11
2013/1/3 9:24,3.1,10,3.1,10,7.1,10
2013/1/3 9:25,3.4,10,3.4,10,6,10
2013/1/3 9:26,3.5,10,3.5,10,5.2,11
2013/1/3 9:27,3.6,10,3.6,10,5.1,9
2013/1/3 9:28,3.6,10,3.7,10,4.5,9
2013/1/3 9:29,3.5,10,3.6,10,5.5,9
2013/1/3 9:30,3.4,10,3.5,10,4.7,9
2013/1/3 9:31,3.1,10,3.4,10,5.7,9
2013/1/3 9:32,3.1,10,3.1,10,4.9,10
2013/1/3 9:33,2.9,10,3.1,10,5.5,7
2013/1/3 9:34,2.7,10,2.9,10,5.4,9
2013/1/3 9:35,2.5,10,2.7,10,4.9,9
2013/1/3 9:36,2.5,9,2.6,10,5.2,9
2013/1/3 9:37,2.4,9,2.5,10,5.6,9
2013/1/3 9:38,2.3,9,2.4,10,4.3,9
2013/1/3 9:39,2.3,9,2.3,10,6.4,9
2013/1/3 9:40,2.4,9,2.4,10,5,10
2013/1/3 9:41,2.7,10,2.7,10,6.4,11
2013/1/3 9:42,2.6,10,2.7,10,3.9,10
2013/1/3 9:43,2.8,10,2.8,10,6.4,9
2013/1/3 9:44,2.8,10,2.8,10,5.8,9
2013/1/3 9:45,2.9,10,2.9,10,5,11
2013/1/3 9:46,2.9,10,2.9,10,4.9,11
2013/1/3 9:47,2.8,10,2.9,10,3.6,8
2013/1/3 9:48,2.8,10,2.8,10,4.4,9
2013/1/3 9:49,2.7,10,2.8,10,4.3,9
2013/1/3 9:50,2.5,10,2.7,10,4.4,9
2013/1/3 9:51,2.3,10,2.5,10,3.9,11
2013/1/3 9:52,2.4,10,2.4,10,5.5,11
2013/1/3 9:53,2.3,10,2.5,10,4.1,9
2013/1/3 9:54,2.3,10,2.3,10,4.4,8
2013/1/3 9:55,2.2,10,2.3,10,4.1,12
2013/1/3 9:56,2.2,10,2.2,10,5.5,10
2013/1/3 9:57,2.4,10,2.4,10,4.5,9
2013/1/3 9:58,2.4,10,2.4,10,4.7,9
2013/1/3 9:59,2.4,10,2.4,10,4.7,10
2013/1/3 10:00,2.6,10,2.6,10,6.5,9
2013/1/3 10:01,2.6,10,2.7,10,4.3,10
2013/1/3 10:02,2.6,10,2.7,10,5.8,11
2013/1/3 10:03,2.7,10,2.7,10,7.4,9
2013/1/3 10:04,2.9,10,2.9,10,6.8,9
2013/1/3 10:05,3.1,10,3.1,10,6.9,10
2013/1/3 10:06,3.2,10,3.2,10,6.3,10
2013/1/3 10:07,3.4,10,3.4,10,5.7,9
2013/1/3 10:08,3.4,10,3.4,10,4.8,9
2013/1/3 10:09,3.5,10,3.5,10,5.6,11
2013/1/3 10:10,3.6,10,3.6,10,6.4,10
2013/1/3 10:11,3.8,10,3.8,10,6.1,11
2013/1/3 10:12,3.9,10,3.9,10,7.1,8
2013/1/3 10:13,4.1,10,4.1,10,8.1,10
2013/1/3 10:14,4.1,10,4.1,10,6.8,11
2013/1/3 10:15,4,10,4.1,10,6.3,10
2013/1/3 10:16,3.9,10,4,10,5.8,11
2013/1/3 10:17,3.8,10,3.9,10,6.1,10
2013/1/3 10:18,3.9,10,3.9,10,7.5,10
2013/1/3 10:19,4,10,4,10,7.6,10
2013/1/3 10:20,4.1,10,4.2,10,7.1,10
2013/1/3 10:21,4.1,10,4.1,10,6.8,9
2013/1/3 10:22,4.1,10,4.1,10,7.5,10
2013/1/3 10:23,4,10,4.1,10,7.6,10
2013/1/3 10:24,4,10,4.1,10,6.9,9
2013/1/3 10:25,3.9,10,4.1,10,5.5,9
2013/1/3 10:26,4,10,4,10,6.3,10
2013/1/3 10:27,4,10,4.1,10,7,10
2013/1/3 10:28,4,10,4.1,10,7,10
2013/1/3 10:29,4.1,10,4.1,10,10,9
2013/1/3 10:30,3.9,10,4,10,7.7,9
2013/1/3 10:31,4,10,4,10,6.8,11
2013/1/3 10:32,3.9,10,4,10,6,10
2013/1/3 10:33,4,10,4,10,8.7,9
2013/1/3 10:34,4.1,10,4.1,10,9.1,10
2013/1/3 10:35,4.3,10,4.3,10,9.8,8
2013/1/3 10:36,4.4,10,4.4,10,8.5,10
2013/1/3 10:37,4.3,10,4.4,10,5.6,10
2013/1/3 10:38,4.3,10,4.4,10,8.3,9
2013/1/3 10:39,4,10,4.3,10,6.3,9
2013/1/3 10:40,4.1,10,4.1,10,9.4,10
2013/1/3 10:41,4.1,10,4.2,10,7.4,11
2013/1/3 10:42,4,10,4.1,10,6.5,9
2013/1/3 10:43,3.8,10,4,10,6.1,9
2013/1/3 10:44,3.8,10,3.8,10,6.8,9
2013/1/3 10:45,3.6,10,3.8,10,6.2,10
2013/1/3 10:46,3.4,10,3.6,10,6.4,9
2013/1/3 10:47,3.5,10,3.5,10,5.7,10
2013/1/3 10:48,3.3,9,3.5,10,4.8,8
2013/1/3 10:49,3.3,10,3.3,10,7.7,9
2013/1/3 10:50,3.1,9,3.4,10,5.8,9
2013/1/3 10:51,3.2,9,3.2,10,9.5,9
2013/1/3 10:52,3.1,9,3.2,10,7.6,9
2013/1/3 10:53,3.1,9,3.2,10,7,9
2013/1/3 10:54,3.2,9,3.2,10,9.4,9
2013/1/3 10:55,3.2,9,3.2,10,7,10
2013/1/3 10:56,3.2,9,3.3,10,5.7,10
2013/1/3 10:57,3.1,9,3.2,10,6.5,10
2013/1/3 10:58,3.3,9,3.3,10,6.9,10
2013/1/3 10:59,3.3,10,3.4,10,4.5,10
2013/1/3 11:00,3.4,10,3.4,9,5.8,10
2013/1/3 11:01,3.3,10,3.4,9,8.3,10
2013/1/3 11:02,3.5,10,3.5,10,8.4,9
2013/1/3 11:03,3.5,10,3.6,10,6.3,10
2013/1/3 11:04,3.5,10,3.6,10,6.7,9
2013/1/3 11:05,3.7,10,3.7,10,9,9
2013/1/3 11:06,3.8,10,3.8,10,7.6,8
2013/1/3 11:07,4.1,10,4.1,10,9.1,11
2013/1/3 11:08,4.2,10,4.2,10,8.7,9
2013/1/3 11:09,4.4,10,4.4,10,6.7,11
2013/1/3 11:10,4.4,10,4.4,10,6.2,10
2013/1/3 11:11,4.2,10,4.4,10,3.6,8
2013/1/3 11:12,4,10,4.1,10,5.6,10
2013/1/3 11:13,4.1,10,4.1,10,7.5,10
2013/1/3 11:14,4,10,4,10,6,10
2013/1/3 11:15,3.9,10,4.1,10,6.8,9
2013/1/3 11:16,3.9,10,3.9,10,6.3,10
2013/1/3 11:17,3.7,10,3.9,10,6.8,9
2013/1/3 11:18,3.6,10,3.7,10,6.2,10
2013/1/3 11:19,3.7,10,3.7,10,8.1,10
2013/1/3 11:20,3.8,10,3.8,10,6.4,9
2013/1/3 11:21,4,10,4,10,4.4,10
2013/1/3 11:22,3.9,10,4,10,4.4,8